📊 Raw Sensor Data
Showing records 42001 to 42025 of 84,992 total
| ID | Distance (ft) | Battery V | Battery A | Int Temp (°F) | Int Humid (%) | Ext Temp (°F) | Solar V | RSSI | SNR | Time Stamp |
|---|---|---|---|---|---|---|---|---|---|---|
| 43004 | 15.8 | 4.02 | 0 | 79 | 42 | 80 | 5.10 | -70 | 8 | 06/09/2025 10:30 AM |
| 43003 | 15.8 | 4.06 | 0 | 78 | 43 | 79 | 5.10 | -69 | 8 | 06/09/2025 10:15 AM |
| 43002 | 15.9 | 4.02 | 0 | 76 | 43 | 80 | 5.10 | -70 | 8 | 06/09/2025 10:00 AM |
| 43001 | 15.8 | 4.02 | 0 | 75 | 43 | 79 | 5.10 | -69 | 8 | 06/09/2025 09:45 AM |
| 43000 | 15.8 | 4.03 | 0 | 73 | 43 | 74 | 5.10 | -69 | 8 | 06/09/2025 09:30 AM |
| 42999 | 15.8 | 4.14 | 0 | 73 | 43 | 76 | 5.10 | -68 | 8 | 06/09/2025 09:15 AM |
| 42998 | 15.8 | 4.02 | 0 | 70 | 44 | 73 | 5.10 | -69 | 7 | 06/09/2025 08:45 AM |
| 42997 | 15.8 | 4.02 | 0 | 69 | 44 | 73 | 5.10 | -69 | 8 | 06/09/2025 08:30 AM |
| 42996 | 15.8 | 4.02 | 0 | 68 | 43 | 72 | 5.10 | -71 | 8 | 06/09/2025 08:15 AM |
| 42995 | 15.8 | 4.02 | 0 | 67 | 43 | 72 | 5.10 | -70 | 8 | 06/09/2025 08:00 AM |
| 42994 | 15.8 | 4.08 | 0 | 66 | 43 | 70 | 5.10 | -70 | 8 | 06/09/2025 07:45 AM |
| 42993 | 15.8 | 4.09 | 49 | 64 | 42 | 70 | 4.50 | -69 | 7 | 06/09/2025 07:30 AM |
| 42992 | 15.8 | 4.03 | 14 | 63 | 42 | 68 | 4.50 | -69 | 8 | 06/09/2025 07:15 AM |
| 42991 | 15.7 | 4.00 | 12 | 61 | 42 | 66 | 4.50 | -69 | 9 | 06/09/2025 07:00 AM |
| 42990 | 15.7 | 4.03 | 6 | 59 | 42 | 65 | 4.50 | -69 | 8 | 06/09/2025 06:45 AM |
| 42989 | 15.6 | 3.97 | 0 | 58 | 42 | 63 | 4.60 | -70 | 7 | 06/09/2025 06:30 AM |
| 42988 | 15.5 | 3.95 | -6 | 55 | 42 | 57 | 4.50 | -71 | 8 | 06/09/2025 06:00 AM |
| 42987 | 15.5 | 3.94 | -10 | 54 | 43 | 56 | 4.10 | -71 | 8 | 06/09/2025 05:45 AM |
| 42986 | 15.5 | 3.95 | -5 | 54 | 43 | 55 | 1.50 | -70 | 7 | 06/09/2025 05:30 AM |
| 42985 | 15.1 | 3.95 | -5 | 54 | 43 | 55 | 0.00 | -71 | 7 | 06/09/2025 05:15 AM |
| 42984 | 15.1 | 4.01 | -5 | 54 | 43 | 55 | 0.00 | -69 | 8 | 06/09/2025 05:00 AM |
| 42983 | 15.1 | 4.01 | -5 | 54 | 43 | 55 | 0.00 | -71 | 8 | 06/09/2025 04:45 AM |
| 42982 | 15.1 | 3.96 | -5 | 54 | 43 | 55 | 0.00 | -69 | 8 | 06/09/2025 04:30 AM |
| 42981 | 15.1 | 3.96 | -5 | 54 | 43 | 55 | 0.00 | -69 | 8 | 06/09/2025 04:15 AM |
| 42980 | 15.1 | 3.96 | -5 | 54 | 43 | 55 | 0.00 | -69 | 8 | 06/09/2025 04:00 AM |